sat.trackr.live / text

‹ back to catalog

STARLINK-5787

NORAD 56004 · 2023-042U

PAYLOAD ACTIVE UNKNOWN

§ Identity

Operator
Country
US
Launch date
2023-03-24
Launch site
AFETR
Launch vehicle
Mass (kg)
RCS (m²)

Purposes: comms

External: N2YO · Heavens-Above · Gunter

§ Orbital elements

Epoch: 2026-09-20T20:06:30.036096Z

Period
94.27 min
Inclination
43.0058°
Eccentricity
0.0001743
Mean motion
15.27577447 rev/d
Perigee alt
481.9 km
Apogee alt
484.3 km
Semi-major
6,861.2 km
B*
7.6523e-6
RAAN
41.0251°
Arg perigee
282.3417°
Mean anomaly
77.7240°
Rev number
19,267

§ Raw data

STARLINK-57871 56004U 23042U   26263.83784764 -.00000052  00000+0  76523-5 0  99972 56004  43.0058  41.0251 0001743 282.3417  77.7240 15.27577447192673

JSON: /api/v1/satellites/56004 · /tle

For live sub-satellite position, see the globe view (requires WebGL).

§ Visibility from observer

Set your observer location to see the next 7 days of passes ≥ 10°. The values pass through the URL so the page stays shareable.

No JS? Fill the form by hand. The geolocation button needs JavaScript.